{"data":{"norad_id":68964,"intl_designator":"2026-099P","name":"STARLINK-36731","alt_names":[],"object_type":"PAYLOAD","status":"ACTIVE","operator":null,"country":"US","launch_date":"2026-05-01","launch_site_code":"AFETR","launch_vehicle":null,"mission":null,"orbit_class":"UNKNOWN","rcs_meters":null,"size_class":null,"mass_kg":null,"dimensions":null,"purposes":["comms"],"wikipedia_slug":null,"has_3d_model":false,"image_url":null,"decayed_at":null,"tle_current":{"epoch":"2026-09-19T23:18:07.072416Z","epoch_age_seconds":65107,"freshness":"FRESH","line1":"1 68964U 26099P   26262.97091519  .00013776  00000+0  41803-3 0  9990","line2":"2 68964  53.1585  78.2214 0000819 119.4037 240.7047 15.34404918 21825","mean_motion":15.34404918,"eccentricity":8.19e-5,"inclination_deg":53.1585,"raan_deg":78.2214,"arg_perigee_deg":119.4037,"mean_anomaly_deg":240.7047,"bstar":0.00041803,"rev_number":2182,"period_min":93.847457285066,"perigee_km":462.12835929521,"apogee_km":463.24888653224,"semimajor_km":6840.8256229137,"source":"CELESTRAK","updated_at":"2026-09-20T09:00:44.054061Z"}}}